Location: Warszawa
(52.2500°N, 21.0000°E)
Time: 13:37:36
(UTC+02:00)

Vanguard 2 - Pass Details

Date: 15 February 2023
Orbit: 553 x 2927 km, 32.9° (Epoch: 27 March)

Event Time Altitude Azimuth Distance (km) Brightness Sun altitude
Rises 00:59:32 0° 261° (W) 5,867 - -48.2°
Reaches altitude 10° 01:08:03 10° 232° (SW) 5,381 - -47.6°
Maximum altitude 01:11:45 11° 219° (SW) 5,440 - -47.3°
Drops below altitude 10° 01:15:37 10° 205° (SSW) 5,658 - -47.0°
Sets 01:25:45 0° 178° (S) 6,759 - -46.2°
